CW4621 Weather Reports


Display with metric or nautical units.
time (UTC)temp
F
wind
direction
speed
MPH
gust
MPH
rain 1hr
in
rain 24hr
in
rain mn
in
humidity
%
barometer
mb
20260504070104 44 127 0.0 1.0 0.00 0.00 0.00 65 1014.3
20260504060104 45 111 0.0 0.0 0.00 0.00 0.00 62 1014.3
20260504050604 46 124 0.0 1.0 0.00 0.00 0.00 59 1014.2
20260504050104 46 124 0.0 0.0 0.00 0.00 0.00 58 1014.3
20260504045604 46 124 0.0 0.0 0.00 0.00 0.00 58 1014.2
20260504044605 46 124 0.0 1.0 0.00 0.00 0.00 57 1014.1
20260504043605 46 124 0.0 0.0 0.00 0.00 0.00 56 1014.0
20260504042605 47 124 0.0 1.0 0.00 0.00 0.00 56 1013.9
20260504042104 47 124 0.0 0.0 0.00 0.00 0.00 56 1013.9
20260504041604 47 124 0.0 0.0 0.00 0.00 0.00 56 1013.9
20260504040605 47 124 0.0 0.0 0.00 0.00 0.00 55 1013.8
20260504035605 48 124 0.0 1.0 0.00 0.00 0.00 54 1013.7
20260504034604 48 124 0.0 0.0 0.00 0.00 0.00 53 1013.6
20260504034106 48 124 0.0 1.0 0.00 0.00 0.00 53 1013.6
20260504033605 48 161 0.0 1.0 0.00 0.00 0.00 53 1013.6
20260504032605 49 109 0.0 0.0 0.00 0.00 0.00 51 1013.5
20260504032105 49 109 0.0 1.0 0.00 0.00 0.00 51 1013.5
20260504031605 49 108 0.0 1.0 0.00 0.00 0.00 51 1013.4
20260504031106 49 205 0.0 1.0 0.00 0.00 0.00 51 1013.4
20260504030105 49 230 0.0 1.0 0.00 0.00 0.00 50 1013.5
20260504025105 49 237 0.0 1.0 0.00 0.00 0.00 50 1013.5
20260504024605 50 237 0.0 1.0 0.00 0.00 0.00 49 1013.6
20260504024105 50 235 0.0 1.0 0.00 0.00 0.00 49 1013.6
20260504023605 50 114 0.0 1.0 0.00 0.00 0.00 49 1013.6
20260504023105 50 198 0.0 1.0 0.00 0.00 0.00 48 1013.6
20260504022604 50 101 0.0 1.0 0.00 0.00 0.00 48 1013.6
20260504022105 50 101 0.0 0.0 0.00 0.00 0.00 48 1013.5
20260504021605 50 142 0.0 1.0 0.00 0.00 0.00 48 1013.5
20260504021105 50 134 0.0 0.0 0.00 0.00 0.00 47 1013.4
20260504020606 50 134 0.0 1.0 0.00 0.00 0.00 47 1013.4
20260504020105 50 136 0.0 0.0 0.00 0.00 0.00 47 1013.4
20260504015105 50 136 0.0 0.0 0.00 0.00 0.00 47 1013.5
20260504014606 50 136 0.0 0.0 0.00 0.00 0.00 46 1013.4
20260504013605 51 136 0.0 0.0 0.00 0.00 0.00 46 1013.3
20260504013105 51 136 0.0 0.0 0.00 0.00 0.00 45 1013.2
20260504012604 51 136 0.0 0.0 0.00 0.00 0.00 45 1013.2
20260504012104 51 136 0.0 1.0 0.00 0.00 0.00 45 1013.2
20260504011606 51 136 0.0 0.0 0.00 0.00 0.00 44 1013.1
20260504010605 52 136 0.0 0.0 0.00 0.00 0.00 43 1012.9
20260504010105 53 136 0.0 0.0 0.00 0.00 0.00 42 1012.9
20260504005605 53 137 0.0 0.0 0.00 0.00 0.00 41 1012.8
20260504005105 53 137 0.0 0.0 0.00 0.00 0.00 40 1012.8
20260504004605 54 137 0.0 0.0 0.00 0.00 0.00 40 1012.7
20260504003605 55 136 0.0 1.0 0.00 0.00 0.00 38 1012.5
20260504002104 56 198 1.0 2.0 0.00 0.00 0.00 37 1012.3
20260504001604 57 195 0.0 3.0 0.00 0.00 0.00 36 1012.3
20260504001106 57 288 0.0 3.0 0.00 0.00 0.00 36 1012.2
20260504000605 57 129 0.0 3.0 0.00 0.00 0.00 35 1012.3
20260504000104 57 324 1.0 3.0 0.00 0.00 0.00 35 1012.2
20260503235104 58 312 1.0 3.0 0.00 0.00 0.00 35 1012.2
20260503234605 58 323 2.0 8.0 0.00 0.00 0.00 33 1012.2
20260503234105 58 181 1.0 7.0 0.00 0.00 0.00 33 1012.1
20260503233105 59 317 2.0 3.0 0.00 0.00 0.00 33 1012.0
20260503232605 59 126 2.0 3.0 0.00 0.00 0.00 32 1011.9
20260503232105 59 294 2.0 5.0 0.00 0.00 0.00 32 1011.9
20260503231605 59 192 2.0 6.0 0.00 0.00 0.00 32 1011.8
20260503231104 59 176 2.0 12.0 0.00 0.00 0.00 31 1011.8
20260503230604 59 347 3.0 9.0 0.00 0.00 0.00 31 1011.7
20260503230105 60 251 2.0 12.0 0.00 0.00 0.00 31 1011.7
20260503225604 60 312 3.0 8.0 0.00 0.00 0.00 31 1011.7
20260503225105 60 151 1.0 6.0 0.00 0.00 0.00 31 1011.6
20260503224604 60 313 3.0 9.0 0.00 0.00 0.00 30 1011.7
20260503224105 60 183 2.0 12.0 0.00 0.00 0.00 31 1011.7
20260503223605 60 100 3.0 9.0 0.00 0.00 0.00 30 1011.7
20260503222605 60 215 2.0 5.0 0.00 0.00 0.00 31 1011.7
20260503222105 60 289 3.0 9.0 0.00 0.00 0.00 30 1011.7
20260503221605 60 351 2.0 9.0 0.00 0.00 0.00 31 1011.7
20260503221105 61 180 5.0 10.0 0.00 0.00 0.00 30 1011.7
20260503220105 61 26 3.0 7.0 0.00 0.00 0.00 29 1011.7
20260503215605 61 198 2.0 10.0 0.00 0.00 0.00 30 1011.7
20260503215105 61 150 2.0 12.0 0.00 0.00 0.00 30 1011.8
20260503214605 61 202 3.0 9.0 0.00 0.00 0.00 30 1011.8
20260503213604 61 335 2.0 9.0 0.00 0.00 0.00 30 1011.7
20260503213104 61 19 3.0 8.0 0.00 0.00 0.00 31 1011.7
20260503212605 61 304 3.0 8.0 0.00 0.00 0.00 31 1011.7
20260503211605 61 262 3.0 13.0 0.00 0.00 0.00 30 1011.8
20260503211104 60 277 3.0 10.0 0.00 0.00 0.00 30 1011.7
20260503210604 61 306 3.0 9.0 0.00 0.00 0.00 30 1011.7
20260503210105 61 30 3.0 12.0 0.00 0.00 0.00 31 1011.7
20260503205605 61 22 4.0 7.0 0.00 0.00 0.00 31 1011.8
20260503205104 61 196 4.0 12.0 0.00 0.00 0.00 31 1011.8
20260503204605 61 302 1.0 8.0 0.00 0.00 0.00 31 1011.7
20260503204104 60 277 3.0 7.0 0.00 0.00 0.00 32 1011.8
20260503203105 59 9 1.0 5.0 0.00 0.00 0.00 32 1011.8
20260503202104 59 336 3.0 8.0 0.00 0.00 0.00 32 1011.8
20260503201605 59 237 3.0 9.0 0.00 0.00 0.00 31 1011.8
20260503201105 59 331 3.0 12.0 0.00 0.00 0.00 30 1011.9
20260503200605 59 298 3.0 12.0 0.00 0.00 0.00 30 1011.9
20260503200105 59 330 3.0 8.0 0.00 0.00 0.00 31 1011.9
20260503195605 60 244 3.0 8.0 0.00 0.00 0.00 30 1011.9
20260503195105 60 3 2.0 12.0 0.00 0.00 0.00 32 1011.8
20260503194605 60 18 2.0 7.0 0.00 0.00 0.00 31 1011.8
20260503194105 60 289 2.0 12.0 0.00 0.00 0.00 31 1011.9
20260503193605 60 302 3.0 12.0 0.00 0.00 0.00 31 1012.1
20260503193105 60 22 2.0 10.0 0.00 0.00 0.00 32 1012.0
20260503191605 60 313 4.0 12.0 0.00 0.00 0.00 31 1012.2
20260503191105 59 209 3.0 10.0 0.00 0.00 0.00 32 1012.2
20260503190604 59 137 3.0 12.0 0.00 0.00 0.00 32 1012.3
20260503190105 59 351 1.0 12.0 0.00 0.00 0.00 32 1012.3
20260503185605 59 46 3.0 7.0 0.00 0.00 0.00 31 1012.3
20260503184605 59 232 4.0 17.0 0.00 0.00 0.00 33 1012.3
20260503184104 59 320 3.0 8.0 0.00 0.00 0.00 32 1012.5
20260503183605 59 208 4.0 12.0 0.00 0.00 0.00 32 1012.7
20260503183104 58 297 3.0 10.0 0.00 0.00 0.00 35 1012.6
20260503181104 57 78 3.0 7.0 0.00 0.00 0.00 34 1012.8
20260503180605 57 294 4.0 12.0 0.00 0.00 0.00 35 1012.7
20260503180104 57 40 3.0 7.0 0.00 0.00 0.00 34 1012.7
20260503175604 57 337 5.0 12.0 0.00 0.00 0.00 32 1012.8
20260503175104 57 163 3.0 9.0 0.00 0.00 0.00 34 1012.8
20260503174604 56 331 4.0 13.0 0.00 0.00 0.00 37 1012.9
20260503174105 56 323 3.0 10.0 0.00 0.00 0.00 35 1012.8
20260503173605 56 275 3.0 8.0 0.00 0.00 0.00 36 1012.9
20260503173104 57 335 2.0 7.0 0.00 0.00 0.00 37 1012.8
20260503172605 56 163 3.0 13.0 0.00 0.00 0.00 36 1012.9
20260503172104 56 326 4.0 10.0 0.00 0.00 0.00 37 1013.0
20260503171604 56 283 4.0 10.0 0.00 0.00 0.00 36 1012.9
20260503171105 56 58 1.0 10.0 0.00 0.00 0.00 38 1012.9
20260503170605 56 220 3.0 12.0 0.00 0.00 0.00 37 1012.9
20260503170104 56 339 2.0 9.0 0.00 0.00 0.00 37 1013.0
20260503150605 53 327 2.0 3.0 0.00 0.00 0.00 43 1013.5
20260503150104 52 322 3.0 12.0 0.00 0.00 0.00 44 1013.4
20260503140105 51 319 1.0 3.0 0.00 0.00 0.00 49 1013.5
20260503131105 49 309 3.0 10.0 0.00 0.00 0.00 50 1013.3
20260503130605 49 308 1.0 7.0 0.00 0.00 0.00 51 1013.3
20260503130105 49 270 3.0 8.0 0.00 0.00 0.00 51 1013.3
20260503110605 46 245 2.0 3.0 0.00 0.00 0.00 54 1012.5
20260503110104 46 10 1.0 3.0 0.00 0.00 0.00 54 1012.3
20260503090105 44 271 0.0 0.0 0.00 0.00 0.00 63 1010.7
20260503081605 44 262 0.0 1.0 0.00 0.00 0.00 63 1010.3
20260503081105 44 262 0.0 1.0 0.00 0.00 0.00 63 1010.3
20260503080605 44 215 0.0 1.0 0.00 0.00 0.00 63 1010.2
20260503080105 44 287 0.0 1.0 0.00 0.00 0.00 64 1010.3
20260503072605 44 271 0.0 0.0 0.00 0.00 0.00 62 1010.3
20260503072105 44 271 0.0 0.0 0.00 0.00 0.00 61 1010.2
20260503071604 44 271 0.0 0.0 0.00 0.00 0.00 61 1010.2
20260503071104 45 271 0.0 0.0 0.00 0.00 0.00 61 1010.1
20260503070604 45 271 0.0 1.0 0.00 0.00 0.00 60 1010.1